Powrót do katalogu

FREGAT DEB

LostUNKNOWN
NORAD 45900·DEBRIS·🇷🇺 Russia

Wystrzelony Jul 18, 2011 z Baikonur Cosmodrome

Loading…

Następne Przeloty (najbliższe 24 godziny)

TLE

NieaktualneSource: Space-Track

Epoka: Mar 3, 2022, 16:03 UTC

1 45900U 11037DV  22062.66894865 -.00115386  00000-0  00000-0 0  9999
2 45900  50.6539 214.5366 1313413  60.6259 311.9236 10.65650512 60607

Śledź FREGAT DEB w czasie rzeczywistym z AllMySat

Download on the App Store